This is the latest recevied weather packets stored in our database for station/object W4NDF-13. If no packets are shown the sender has not sent any weather packets the latest 10 day(s).
| Time | Temp. | Humidity | Pressure | Rain* | Wind** | Luminosity | Snow |
|---|---|---|---|---|---|---|---|
| 1777477281 | 27.78° C | 73% | 1016.5 hPa | 0 mm | - | 676 W/m² | - |
| 1777476977 | 27.22° C | 72% | 1016.7 hPa | 0 mm | - | 697 W/m² | - |
| 1777476676 | 27.22° C | 73% | 1016.6 hPa | 0 mm | - | 280 W/m² | - |
| 1777476372 | 27.22° C | 73% | 1016.7 hPa | 0 mm | - | 690 W/m² | - |
| 1777476068 | 27.22° C | 73% | 1016.5 hPa | 0 mm | - | 311 W/m² | - |
| 1777475763 | 27.22° C | 75% | 1016.6 hPa | 0 mm | - | 502 W/m² | - |
| 1777475460 | 27.78° C | 74% | 1016.6 hPa | 0 mm | - | 397 W/m² | - |
| 1777475155 | 27.22° C | 73% | 1016.7 hPa | 0 mm | - | 252 W/m² | - |
| 1777474852 | 27.78° C | 73% | 1016.6 hPa | 0 mm | - | 605 W/m² | - |
| 1777474547 | 27.22° C | 74% | 1016.6 hPa | 0 mm | - | 385 W/m² | - |
| 1777474245 | 26.67° C | 76% | 1016.7 hPa | 0 mm | - | 184 W/m² | - |
| 1777473942 | 27.22° C | 76% | 1016.5 hPa | 0 mm | - | 576 W/m² | - |
| 1777473640 | 26.67° C | 77% | 1016.5 hPa | 0 mm | - | 176 W/m² | - |
| 1777473336 | 26.67° C | 77% | 1016.4 hPa | 0 mm | - | 531 W/m² | - |
| 1777473032 | 26.67° C | 79% | 1016.3 hPa | 0 mm | - | 506 W/m² | - |
| 1777472728 | 26.67° C | 79% | 1016.5 hPa | 0 mm | - | 484 W/m² | - |
| 1777472425 | 26.67° C | 80% | 1016.4 hPa | 0 mm | - | 192 W/m² | - |
| 1777472123 | 26.67° C | 80% | 1016.4 hPa | 0 mm | - | 505 W/m² | - |
| 1777471822 | 25.56° C | 83% | 1016.3 hPa | 0 mm | - | 468 W/m² | - |
| 1777471519 | 25.56° C | 83% | 1016.2 hPa | 0 mm | - | 173 W/m² | - |
| 1777471216 | 26.11° C | 81% | 1016.1 hPa | 0 mm | - | 399 W/m² | - |
| 1777470913 | 26.11° C | 84% | 1016.1 hPa | 0 mm | - | 362 W/m² | - |
| 1777470610 | 25.56° C | 84% | 1016 hPa | 0 mm | - | 337 W/m² | - |
| 1777470305 | 25.56° C | 84% | 1016.2 hPa | 0 mm | - | 106 W/m² | - |
| 1777470002 | 25.56° C | 85% | 1016.3 hPa | 0 mm | - | 275 W/m² | - |
* Rain latest hour (hover to see other rain measurements)
** Current wind speed in m/s (hover to see current wind gust speed)